TimeSAST,TemperatureF,Dew PointF,Humidity,Sea Level PressureIn,VisibilityMPH,Wind Direction,Wind SpeedMPH,Gust SpeedMPH,PrecipitationIn,Events,Conditions,WindDirDegrees,DateUTC
12:00 AM,57.2,57.2,100,30.24,6.2,Calm,Calm,-,N/A,,Mostly Cloudy,0,2011-11-27 22:00:00
1:00 AM,57.2,57.2,100,30.21,5.6,ESE,3.5,-,N/A,,Overcast,120,2011-11-27 23:00:00
2:00 AM,56,56,100,30.22,3,,1.2,,,,,,2011-11-28 00:00:00
2:00 AM,57.2,55.4,94,30.21,-9999.0,Calm,Calm,-,N/A,,Heavy Drizzle,0,2011-11-28 00:00:00
3:00 AM,55.4,55.4,100,30.21,2.2,Variable,1.2,-,N/A,Rain,Light Rain,0,2011-11-28 01:00:00
4:00 AM,55.4,55.4,100,30.21,1.7,Variable,2.3,-,N/A,,Drizzle,0,2011-11-28 02:00:00
4:05 AM,55.4,55.4,100,30.21,-9999.0,Variable,2.3,-,N/A,,Drizzle,0,2011-11-28 02:05:00
4:34 AM,55.4,55.4,100,30.21,6.2,Variable,2.3,-,N/A,,Mostly Cloudy,0,2011-11-28 02:34:00
5:00 AM,56,56,100,30.22,4,NNE,3.5,,,Rain,Light Drizzle,20,2011-11-28 03:00:00
5:00 AM,55.4,55.4,100,30.21,3.7,NNE,2.3,-,N/A,,Light Drizzle,20,2011-11-28 03:00:00
5:24 AM,55.4,55.4,100,30.21,6.2,North,2.3,-,N/A,,Scattered Clouds,350,2011-11-28 03:24:00
6:00 AM,55.4,55.4,100,30.21,6.2,NNW,2.3,-,N/A,,Scattered Clouds,340,2011-11-28 04:00:00
7:00 AM,60.8,55.4,82,30.21,6.2,SE,4.6,-,N/A,,Partly Cloudy,130,2011-11-28 05:00:00
7:12 AM,60.8,55.4,82,30.21,6.2,SE,4.6,-,N/A,,Mostly Cloudy,130,2011-11-28 05:12:00
8:00 AM,62.6,57.2,82,30.18,6.2,East,8.1,-,N/A,,Partly Cloudy,90,2011-11-28 06:00:00
9:00 AM,66.2,57.2,73,30.18,6.2,ESE,8.1,-,N/A,,Partly Cloudy,110,2011-11-28 07:00:00
10:00 AM,68.0,55.4,64,30.18,6.2,East,9.2,-,N/A,,Partly Cloudy,100,2011-11-28 08:00:00
11:00 AM,67,57,61,30.17,19,SE,12.7,,,,Scattered Clouds,140,2011-11-28 09:00:00
11:00 AM,68.0,57.2,68,30.15,6.2,SE,12.7,-,N/A,,Partly Cloudy,140,2011-11-28 09:00:00
12:00 PM,66.2,57.2,73,30.15,6.2,SE,13.8,-,N/A,,Partly Cloudy,140,2011-11-28 10:00:00
1:00 PM,68.0,57.2,68,30.12,6.2,ESE,13.8,-,N/A,,Partly Cloudy,120,2011-11-28 11:00:00
2:00 PM,68,57,60,30.12,12,East,13.8,,,,Scattered Clouds,100,2011-11-28 12:00:00
2:00 PM,68.0,57.2,68,30.12,6.2,East,13.8,-,N/A,,Partly Cloudy,100,2011-11-28 12:00:00
3:00 PM,68.0,59.0,73,30.06,6.2,ESE,17.3,-,N/A,,Partly Cloudy,120,2011-11-28 13:00:00
4:00 PM,66.2,60.8,83,30.06,6.2,ESE,18.4,-,N/A,,Partly Cloudy,110,2011-11-28 14:00:00
5:00 PM,68,61,71,30.05,12,ESE,16.1,,,,Scattered Clouds,110,2011-11-28 15:00:00
5:00 PM,68.0,60.8,78,30.04,6.2,East,16.1,-,N/A,,Partly Cloudy,100,2011-11-28 15:00:00
6:00 PM,66.2,60.8,83,30.04,6.2,ESE,17.3,-,N/A,,Partly Cloudy,110,2011-11-28 16:00:00
7:00 PM,64.4,60.8,88,30.04,6.2,East,12.7,-,N/A,,Partly Cloudy,100,2011-11-28 17:00:00
8:00 PM,62.6,60.8,94,30.04,6.2,ESE,11.5,-,N/A,,Partly Cloudy,110,2011-11-28 18:00:00
9:00 PM,62.6,59.0,88,30.04,-9999.0,East,8.1,-,N/A,,Clear,100,2011-11-28 19:00:00
10:00 PM,60.8,59.0,94,30.04,-9999.0,ENE,4.6,-,N/A,,Clear,70,2011-11-28 20:00:00
11:00 PM,59.0,59.0,100,30.04,4.3,NW,3.5,-,N/A,,Unknown,310,2011-11-28 21:00:00